User: anonymous   Login
Location: Sherrills_Ford_Terrell
(35.6000°N, 80.9830°W)
Time: 15:34:07
(UTC-04:00)
Language:

CZ-4B R/B - Orbit

View from above orbital plane
View from above orbital plane
View from above satellite
View from above satellite

Ground track
Ground track

The orbit data is extracted from the following two-line orbital elements,

1 29093U 06015B   17233.50830372  .00004068  00000-0  96403-4 0  9993
2 29093  97.5012 346.0131 0065057  83.1671 277.6971 15.40149147627589
Epoch (UTC): 21 August 2017 12:11:57
Eccentricity: 0.0065057
inclination: 97.5012°
perigee height: 401 km
apogee height: 490 km
right ascension of ascending node: 346.0131°
argument of perigee: 83.1671°
revolutions per day: 15.40149147
mean anomaly at epoch: 277.6971°
orbit number at epoch: 62758

The dashed part of the orbit path shows where the satellite is in the earth's shadow,  

DLR